ONEWEB-0270 (48988 NORAD) Tracking and Keplerian Element Data

This shows tracking and keplerian element data for the satellite.

Feedback or suggestion? Click here.




ElementValue
Catalog48988
NameONEWEB-0270
Epoch Orbit362
Epoch Day210.91668981
Epoch Year2021
RAAN227.4863
Inclination87.466
Eccentricity0.0013003
Argument of Perigee135.6604
Mean Anonmoly253.1595
Mean Motion15.03165258
Decay Rate-0.01371395
L11 48988U 21060X 21210.91668981 -.01371395 00000-0 -11036+0 0 9991
L22 48988 87.4660 227.4863 0013003 135.6604 253.1595 15.03165258 3621

Live tracking and technical data element details for ONEWEB-0270 (NORAD 48988). ONEWEB-0270 can be tracked NOW for your location showing map with azimuth and elevation plus other details from your city location.

Track the satellite on the map from your city or location and see movement details for azimuth, elevation, latitude, longitude, range, height, and movement on the map or in text.







IsCatalogInMostPopularTable: catalog: 48988, numindb: 2
Update: records affected: 1



GetName: 48988 ONEWEB-0270

Hit Count: updated at: Sat, 31 Jul 2021 15:53:20 GMT